This is the latest recevied weather packets stored in our database for station/object K7MT-WX. If no packets are shown the sender has not sent any weather packets the latest 10 day(s).
| Time | Temp. | Humidity | Pressure | Rain* | Wind** | Luminosity | Snow |
|---|---|---|---|---|---|---|---|
| 1788099480 | 11.11° C | 58% | 1015.5 hPa | 0 mm | - | - | - |
| 1788098579 | 11.11° C | 57% | 1015.4 hPa | 0 mm | - | - | - |
| 1788097679 | 11.11° C | 58% | 1015.3 hPa | 0 mm | - | - | - |
| 1788096779 | 11.11° C | 61% | 1015.1 hPa | 0 mm | - | - | - |
| 1788095879 | 11.67° C | 56% | 1014.9 hPa | 0 mm | - | - | - |
| 1788094979 | 12.22° C | 56% | 1014.8 hPa | 0 mm | - | - | - |
| 1788094079 | 12.22° C | 57% | 1014.9 hPa | 0 mm | - | - | - |
| 1788093179 | 12.22° C | 58% | 1014.9 hPa | 0 mm | - | - | - |
| 1788092279 | 12.22° C | 60% | 1014.6 hPa | 0 mm | - | - | - |
| 1788091379 | 12.22° C | 61% | 1014.5 hPa | 0 mm | - | - | - |
| 1788090479 | 12.22° C | 62% | 1014.6 hPa | 0 mm | - | - | - |
| 1788089579 | 12.22° C | 64% | 1014.6 hPa | 0 mm | - | - | - |
| 1788088679 | 12.22° C | 62% | 1014.4 hPa | 0 mm | - | - | - |
| 1788087779 | 11.67° C | 66% | 1014.5 hPa | 0 mm | - | - | - |
| 1788086879 | 12.22° C | 68% | 1014.6 hPa | 0 mm | - | - | - |
| 1788085979 | 12.22° C | 64% | 1014.2 hPa | 0 mm | - | - | - |
| 1788085079 | 11.67° C | 70% | 1013.9 hPa | 0 mm | - | - | - |
| 1788084149 | 11.67° C | 73% | 1014 hPa | 0 mm | - | - | - |
| 1788083249 | 11.67° C | 75% | 1013.9 hPa | 1.27 mm | - | - | - |
| 1788082349 | 11.67° C | 80% | 1013.8 hPa | 1.27 mm | - | - | - |
| 1788081449 | 11.67° C | 78% | 1014.3 hPa | 1.27 mm | - | - | - |
| 1788080549 | 12.22° C | 76% | 1014 hPa | 1.27 mm | - | - | - |
| 1788079649 | 12.78° C | 74% | 1014.2 hPa | 0 mm | - | - | - |
| 1788078749 | 13.33° C | 75% | 1014.6 hPa | 0 mm | - | - | - |
| 1788077849 | 12.78° C | 77% | 1014.4 hPa | 0 mm | - | - | - |
* Rain latest hour (hover to see other rain measurements)
** Current wind speed in m/s (hover to see current wind gust speed)